World > North America > United States > Mississippi

Hourly Longshot, MS Regional Weather

Feedback E-mail the Weather

Quick WX

Longshot, MS Weather Maps

°F °C°F °C
Longshot Weather Map
UTC Time: 7/6/2022, 03:44
Your Time:

Longshot, MS Regional Weather

Expires:202207060400;;761718
ASUS44 KJAN 060310
RWRMS 

MISSISSIPPI HOURLY WEATHER ROUNDUP
NATIONAL WEATHER SERVICE JACKSON MS
1000 PM CDT TUE JUL 05 2022

NOTE: "FAIR: INDICATES FEW OR NO CLOUDS BELOW 12,000 FEET WITH NO
SIGNIFICANT WEATHER AND/OR OBSTRUCTIONS TO VISIBILITY.


MSZ001>002-007>008-010>013-018>021-025>028-034>036-060400-
NORTHWEST MISSISSIPPI
  
CITY           SKY/WX    TMP DP  RH WIND       PRES   REMARKS
BATESVILLE     FAIR      84  75  74 SW6       29.96R HX  92           
CLARKSDALE     PTCLDY    82  79  89 S8        29.95S HX  93           
CLEVELAND      FAIR      79  75  89 S7        29.95R                  
GREENWOOD      MOCLDY    80  76  87 S6        29.98R                  
GREENVILLE     MOCLDY    80  74  81 S7        29.95R                  
OLIVE BRANCH     N/A     86  77  74 S7        29.95R HX  97           
OXFORD         CLEAR     81  75  83 CALM      29.99R                  
TUNICA         CLEAR     84  76  78 S6        29.94R HX  93           
WINONA         FAIR      77  75  95 S3        30.00R                  
$$


SKY/WX - Weather  TMP - Temperature  DP - Dew Point  RH - Humidity
WIND - Wind Direction/Speed PRES - Barometric Pressure VSB - Visibility
WCI - Wind Chill Index E13G22 Wind - East Wind 13 mph/Gusts of 22 mph

Trending Headlines

Longshot Radar Loop



Longshot Quick Facts


National Two Day Weather Forecast


E-mail the Longshot Weather Forecast

Voice your opinion or tell us about page issues...